Location: Miles
(41.4492°N, 81.6087°W)
Time: 22:19:25
(UTC+00:00)

Courier 1B Rocket - Pass Details

Date: 20 September 2024
Orbit: 920 x 1201 km, 28.2° (Epoch: 09 October)

Event Time Altitude Azimuth Distance (km) Brightness Sun altitude
Rises 18:12:07 0° 214° (SW) 3,540 8.6 47.5°
Reaches altitude 10° 18:15:59 10° 190° (S) 2,614 8.2 47.3°
Maximum altitude 18:19:11 14° 159° (SSE) 2,331 7.7 47.1°
Drops below altitude 10° 18:22:26 10° 128° (SE) 2,670 7.6 46.8°
Sets 18:26:28 0° 105° (ESE) 3,669 7.9 46.5°
